RS-30
1 32953U 08025A 14310.85272993 .00000010 00000-0 -13620-7 0 4414
2 32953 082.4967 112.5081 0018663 203.8925 156.1292 12.43052185292988
METEOR-M
1 35865U 09049A 14310.71831450 .00000140 00000-0 82745-4 0 498
2 35865 098.5327 353.6840 0003340 047.7895 312.3567 14.21946475266590
RS-38
1 35869U 09049E 14310.72473295 .00000130 00000-0 77410-4 0 9550
2 35869 098.5251 353.4236 0005436 044.1165 316.0441 14.22240347266639
JUGNU
1 37839U 11058B 14309.88778636 .00000469 00000-0 10883-3 0 7287
2 37839 019.9622 116.1330 0018905 105.5904 254.6417 14.12362714158603
SRMSAT
1 37841U 11058D 14309.89549698 .00000420 00000-0 86689-4 0 7325
2 37841 019.9710 138.2216 0011847 040.1568 091.3413 14.10395452158380
RAX-2
1 37853U 11061D 14309.88415225 .00007128 00000-0 47378-3 0 9559
2 37853 101.7040 047.2415 0210013 006.2405 103.7809 14.91473931163761
AUBIESAT
1 37854U 11061E 14309.87137740 .00007592 00000-0 48646-3 0 9534
2 37854 101.7084 049.6094 0207442 002.6366 109.9684 14.93025610163833
HRBE
1 37855U 11061F 14310.17793862 .00007110 00000-0 46258-3 0 9749
2 37855 101.7082 049.1916 0209940 003.5106 356.7515 14.92209156163830
RS-39
1 38051U 11062C 14288.65876392 .70201582 12497-4 27925-2 0 413
2 38051 051.5964 324.1908 0006422 269.6897 186.8903 16.43533377153081
E-STAR
1 38079U 12006C 14310.13888059 .00239692 17427-4 16899-2 0 551
2 38079 069.4370 330.2235 0236496 146.9837 214.6369 15.44798415145058
GOLIAT
1 38085U 12006J 14310.87308704 .00198589 12399-4 16364-2 0 5120
2 38085 069.4405 339.4452 0272130 151.1285 269.0743 15.34927985144870
HORYU-2
1 38340U 12025D 14310.15371535 .00002448 00000-0 38813-3 0 149
2 38340 098.2837 269.9301 0013850 086.2962 273.9828 14.73083989132688
RS-40
1 38735U 12041C 14310.80206288 .00000040 00000-0 21992-3 0 7434
2 38735 082.4766 198.6215 0016596 307.9437 052.0134 12.42562869103298
PROITERES
1 38756U 12047B 14310.84638065 .00001431 00000-0 21934-3 0 3807
2 38756 098.2231 041.4694 0011130 292.1076 067.8951 14.75237231116219
BEESAT-3
1 39134U 13015E 14310.62013741 .00014111 00000-0 91535-3 0 7614
2 39134 064.8763 047.1967 0036351 284.2002 075.5579 15.07298558 85108
BEESAT-2
1 39136U 13015G 14310.08747620 .00009295 00000-0 63005-3 0 7434
2 39136 064.8771 049.8573 0036470 284.5901 075.1176 15.06403628 85007
LO-75
1 39382U 13064C 14295.69194059 .07301741 00000-0 36367-2 0 4875
2 39382 040.4713 030.2705 0002289 341.7175 018.4586 16.19795749470823
ZACUBE-1
1 39417U 13066B 14310.44789012 .00002516 00000-0 33937-3 0 4597
2 39417 097.7607 016.1077 0062752 140.6652 219.9142 14.78629417 51711
TRITON-1
1 39427U 13066M 14309.78884620 .00001787 00000-0 30353-3 0 3108
2 39427 097.7485 008.3983 0118204 159.2327 201.3740 14.65803138 51139
DELFIN3XT
1 39428U 13066N 14310.45156230 .00003355 00000-0 57667-3 0 3148
2 39428 097.7478 007.8301 0128007 160.3782 200.2413 14.63976488 51143
GOMX-1
1 39430U 13066Q 14310.74109139 .00002440 00000-0 46641-3 0 9600
2 39430 097.7399 004.6304 0155697 169.5806 190.8687 14.57232777 50975
MO-76
1 39436U 13066W 14310.17611437 .00021991 00000-0 20338-2 0 3961
2 39436 097.7682 021.8313 0024594 138.4601 221.8494 14.94329069 52049
LO-74
1 39440U 13066AA 14309.47136756 .00002118 00000-0 31523-3 0 3052
2 39440 097.7569 012.3659 0084484 149.4765 211.1400 14.73531180 51384
PUCPSAT-1
1 39442U 13066AC 14309.73873087 .00004538 00000-0 50863-3 0 3054
2 39442 097.7677 019.8052 0035221 138.6991 221.6899 14.86871152 50658
SHINAISAT
1 39572U 14009A 14310.51361649 .00377997 67207-4 73995-3 0 3891
2 39572 064.9976 262.1692 0014296 275.4177 084.5360 15.99711902 39565
TEIKYOSAT
1 39576U 14009E 14297.85867254 .09345816 76764-5 25176-3 0 4374
2 39576 064.9818 300.5833 0008491 317.3597 044.3862 16.45008906 37698
CO-77
1 39577U 14009F 14244.78324653 .10543803 76292-5 32273-3 0 3795
2 39577 064.9920 123.7668 0014904 269.7208 091.1897 16.43552757 29380
SPROUT
1 39770U 14029E 14309.85007181 .00002293 00000-0 28864-3 0 1831
2 39770 097.8722 044.8606 0009572 202.9576 157.1208 14.82977193 24523
POPSAT-HIP1
1 40028U 14033U 14310.77198519 .00003379 00000-0 39587-3 0 4308
2 40028 097.9698 205.6682 0013881 183.4106 176.7022 14.85633186 20740
EO-80
1 40032U 14033Y 14310.65903568 .00003079 00000-0 36354-3 0 4180
2 40032 097.9690 205.4387 0012032 179.9728 180.1493 14.85386718 20730
VELOX-1
1 40057U 14034E 14310.80000083 .00003287 00000-0 50200-3 0 4171
2 40057 098.2391 020.2039 0010669 224.9104 135.1227 14.74485452 19094
DAURIA DX 1
1 40071U 14037C 14310.78097840 .00001503 00000-0 20749-3 0 3896
2 40071 098.3870 007.7910 0007449 230.5129 129.5409 14.79748498 17895
UKUBE-1
1 40074U 14037F 14310.77121191 .00003144 00000-0 41451-3 0 3914
2 40074 098.3875 007.9798 0003702 236.0134 124.0700 14.80859758 17904
CHASQUI-1
1 40117U 98067ET 14310.69283273 .00125244 00000-0 13435-2 0 2564
2 40117 051.6422 110.3105 0006623 263.2485 194.0704 15.62871441 12448
